sat.trackr.live / text

‹ back to catalog

STARLINK-36096

NORAD 66949 · 2025-286AA

PAYLOAD ACTIVE UNKNOWN

§ Identity

Operator
Country
US
Launch date
2025-12-07
Launch site
AFWTR
Launch vehicle
Mass (kg)
RCS (m²)

Purposes: comms

External: N2YO · Heavens-Above · Gunter

§ Orbital elements

Epoch: 2026-05-25T00:41:09.749184Z

Period
93.85 min
Inclination
53.1601°
Eccentricity
0.0000810
Mean motion
15.34421098 rev/d
Perigee alt
462.1 km
Apogee alt
463.2 km
Semi-major
6,840.8 km
B*
5.2243e-4
RAAN
3.2183°
Arg perigee
61.4243°
Mean anomaly
298.6841°
Rev number
2,711

§ Raw data

STARLINK-360961 66949U 25286AA  26145.02858506  .00017328  00000+0  52243-3 0  99982 66949  53.1601   3.2183 0000810  61.4243 298.6841 15.34421098 27114

JSON: /api/v1/satellites/66949 · /tle

For live sub-satellite position, see the globe view (requires WebGL).

§ Visibility from observer

Set your observer location to see the next 7 days of passes ≥ 10°. The values pass through the URL so the page stays shareable.

No JS? Fill the form by hand. The geolocation button needs JavaScript.